Zurück zum Katalog

FENGYUN 1C DEB

AktivSSO
NORAD 30887·DEBRIS·🇨🇳 China

Gestartet May 10, 1999 von Taiyuan Satellite Launch Center

Loading…

Nächste Überflüge (nächste 24 Stunden)

TLE

AktuellSource: Space-Track

Epoche: Sep 12, 2026, 21:07 UTC

1 30887U 99025AXZ 26255.88011507  .00001962  00000-0  36854-3 0  9998
2 30887  98.3341 312.7830 0260197 174.2913 186.1348 14.46354455 20826

Verfolge FENGYUN 1C DEB in Echtzeit mit AllMySat

Download on the App Store